Torna al catalogo

STARLINK-11317

AttivoComunicazioniVLEO
NORAD 61248·PAYLOAD·🇺🇸 United States

Lanciato Sep 25, 2024 da Vandenberg Space Force Base

Loading…

Prossimi Passaggi (prossime 24 ore)

TLE

AggiornatoSource: CelesTrak SupGP

Epoca: Sep 15, 2026, 02:40 UTC

1 61248C 24175F   26258.11159722 -.00073452  00000+0 -60475-3 0  2586
2 61248  53.1570 202.2237 0001186  88.7439 172.2423 15.69757880    15

Traccia STARLINK-11317 in tempo reale con AllMySat

Download on the App Store